Flag for Martinique Weather past 2 weeks in Fort-de-France, Martinique

Now
77 °F

Partly cloudy.


Feels Like: 78 °F
Forecast: 80 / 87 °F
Wind: 5 mph from Northeast

Location: Le Lamentin Airport

Current Time: Sep 20, 2014 at 12:11:20 AM

Latest Report: Sep 19, 2014 at 11:30 PM


Visibility: N/A

Pressure: 29.95 "Hg

Humidity: 94%

Dew point: 75 °F

Location of Fort-de-FranceLocation

Historic Weather in Fort-de-France — Graph

°F

Fort-de-France temperature yesterday

Maximum temperature yesterday: 82 °F (at 9:30 AM)
Minimum temperature yesterday: 77 °F (at 1:00 AM)
Average temperature yesterday: 79 °F

Past Weeks' High & Low Weather Summary

 TemperatureHumidityPressure
High90 °F (Sep 5, 1:00 PM)100% (Sep 6, 3:00 AM)30.04 "Hg (Sep 6, 3:00 AM)
Low73 °F (Sep 6, 2:00 AM)55% (Sep 9, 11:00 AM)29.86 "Hg (Sep 11, 3:30 PM)
Average82 °F78%29.95 "Hg
* Reported Sep 4 11:00 PM — Sep 19 11:00 PM, Fort-de-France, Weather by CustomWeather, © 2014

Note: Actual official high and low records may vary slightly from our data, if they occured in-between our weather recording intervals... More about our weather records

Advertising

Fort-de-France weather history for previous 24 hours

 ConditionsComfort  
Time TempWeatherWind HumidityBarometerVisibility
11:00 PM
Sep 19
77 °FClear.7 mph89%29.95 "HgN/A
10:30 PM77 °FClear.6 mph94%29.95 "HgN/A
10:00 PM77 °FClear.5 mph89%29.95 "HgN/A
9:00 PM77 °FClear.3 mph94%29.95 "HgN/A
8:00 PM77 °FClear.2 mph89%29.95 "HgN/A
7:30 PM77 °FClear.3 mph89%29.95 "HgN/A
7:00 PM77 °FClear.6 mph89%29.95 "HgN/A
6:30 PM77 °FClear.3 mph89%29.95 "HgN/A
6:00 PM77 °FClear.3 mph89%29.92 "HgN/A
5:30 PM79 °FLight rain. Partly sunny.3 mph89%29.95 "HgN/A
5:00 PM79 °FLight rain. Partly sunny.3 mph89%29.95 "HgN/A
4:30 PM79 °FClear.3 mph89%29.95 "HgN/A
4:00 PM79 °FClear.5 mph89%29.92 "HgN/A
3:30 PM79 °FScattered clouds.5 mph84%29.92 "HgN/A
3:00 PM81 °FPassing clouds.5 mph79%29.92 "HgN/A
2:30 PM81 °FPartly sunny.3 mph79%29.92 "HgN/A
2:00 PM82 °FScattered clouds.3 mph74%29.92 "HgN/A
1:30 PM82 °FWarm.3 mph70%29.92 "HgN/A
1:00 PM82 °FScattered clouds.6 mph74%29.95 "HgN/A
12:30 PM81 °FScattered clouds.9 mph79%29.95 "HgN/A
12:00 PM79 °FBroken clouds.10 mph89%29.98 "HgN/A
11:30 AM77 °FPartly sunny.9 mph94%29.98 "HgN/A
11:00 AM77 °FRain. Broken clouds.12 mph89%30.01 "Hg4 mi
10:30 AM82 °FBroken clouds.9 mph79%30.01 "HgN/A
10:00 AM82 °FWarm.12 mph79%29.98 "HgN/A
9:30 AM82 °FBroken clouds.15 mph84%29.98 "HgN/A
8:30 AMN/ABroken clouds.8 mphN/A29.98 "HgN/A
7:30 AMN/ASunny.6 mphN/AN/AN/A
7:00 AMN/ASunny.5 mphN/AN/AN/A
1:00 AM77 °FHeavy rain. Fog.3 mph94%29.92 "Hg0 mi
12:30 AM79 °FLight rain. Partly cloudy.3 mph94%29.92 "HgN/A
12:00 AM79 °FMostly cloudy.3 mph94%29.92 "HgN/A
Weather by CustomWeather, © 2014

See weather overviewHow to use our weather pages